TUI99 EGPF-LGSK

Flight info

Callsign TUI99
Flight time N/A
Altitude 37000
Route LUSIV DCT BELOX L603 BUKUT DCT LAMSO DCT OTMEC DCT DOJOH DCT DKB T104 XERUM M867 RADIZ DCT EBITI DCT OKSIG DCT MOJ DCT ERANA UL737 TSL UL617 IBIDI
Aircraft B737/M-SDE2E3FGHIRWXY/LB1

Departure

Time N/A
Airport Glasgow Airport (EGPF)

Arrival

Time 2026-04-30 20:26
Airport Skiathos Island National Airport (LGSK)
Time Latitude Longitude Altitude Speed Heading
2026-04-30 18:42 48.28371 11.63973 37293 ft 473 kts 124°
2026-04-30 18:42 48.23093 11.72987 37245 ft 475 kts 126°
2026-04-30 18:45 47.97175 12.10353 37262 ft 482 kts 132°
2026-04-30 18:46 47.92260 12.17008 37267 ft 485 kts 133°
2026-04-30 18:46 47.87213 12.23481 37256 ft 486 kts 134°
2026-04-30 18:47 47.82072 12.29860 37256 ft 485 kts 135°
2026-04-30 18:47 47.76849 12.36314 37242 ft 487 kts 135°
2026-04-30 18:48 47.71684 12.42707 37246 ft 487 kts 135°
2026-04-30 18:48 47.66743 12.48807 37253 ft 490 kts 135°
2026-04-30 18:49 47.61600 12.55440 37256 ft 486 kts 130°
2026-04-30 18:49 47.57037 12.62498 37259 ft 485 kts 127°
2026-04-30 18:50 47.52586 12.69878 37416 ft 485 kts 127°
2026-04-30 18:50 47.50375 12.73564 37295 ft 482 kts 127°
2026-04-30 18:50 47.48177 12.77210 37275 ft 481 kts 127°
2026-04-30 18:51 47.43727 12.84530 37260 ft 485 kts 127°
2026-04-30 18:51 47.39214 12.91870 37263 ft 484 kts 127°
2026-04-30 18:52 47.34666 12.99214 37253 ft 485 kts 128°
2026-04-30 18:52 47.30146 13.06476 37250 ft 486 kts 128°
2026-04-30 18:53 47.25622 13.13720 37245 ft 485 kts 128°
2026-04-30 18:53 47.21016 13.21078 37225 ft 486 kts 128°
2026-04-30 18:54 47.16449 13.28353 37219 ft 486 kts 128°
2026-04-30 18:54 47.11857 13.35648 37211 ft 486 kts 128°
2026-04-30 18:55 47.07293 13.42882 37197 ft 487 kts 128°
2026-04-30 18:55 47.00373 13.53807 37174 ft 487 kts 128°
2026-04-30 18:56 46.93433 13.64724 37200 ft 490 kts 128°
2026-04-30 18:57 46.86463 13.75641 37208 ft 490 kts 129°
2026-04-30 18:57 46.81819 13.82890 37222 ft 491 kts 129°
2026-04-30 18:58 46.74828 13.93763 37228 ft 490 kts 129°
2026-04-30 18:59 46.67869 14.04544 37240 ft 493 kts 129°
2026-04-30 19:00 46.58550 14.18907 37272 ft 492 kts 129°
2026-04-30 19:01 46.49209 14.33230 37265 ft 494 kts 130°
2026-04-30 19:02 46.42139 14.44026 37281 ft 493 kts 130°
2026-04-30 19:03 46.32690 14.58388 37291 ft 495 kts 130°
2026-04-30 19:04 46.23250 14.72655 37293 ft 498 kts 131°
2026-04-30 19:05 46.13728 14.86969 37299 ft 496 kts 131°
2026-04-30 19:06 46.04299 15.01134 37329 ft 496 kts 130°
2026-04-30 19:06 45.97613 15.12317 37332 ft 496 kts 127°
2026-04-30 19:07 45.91099 15.23502 37341 ft 497 kts 128°
2026-04-30 19:08 45.82214 15.38466 37340 ft 497 kts 128°
2026-04-30 19:09 45.75477 15.49686 37333 ft 498 kts 128°
2026-04-30 19:09 45.71014 15.57083 37336 ft 497 kts 128°
2026-04-30 19:10 45.62061 15.71863 37331 ft 499 kts 129°
2026-04-30 19:11 45.55279 15.83010 37332 ft 499 kts 129°
2026-04-30 19:12 45.50752 15.90426 37335 ft 499 kts 129°
2026-04-30 19:12 45.46273 15.97747 37331 ft 499 kts 129°
2026-04-30 19:13 45.37215 16.12490 37329 ft 501 kts 130°
2026-04-30 19:14 45.32674 16.19847 37328 ft 500 kts 130°
2026-04-30 19:14 45.28140 16.27176 37326 ft 501 kts 130°
2026-04-30 19:15 45.23579 16.34532 37329 ft 501 kts 130°
2026-04-30 19:15 45.16789 16.45445 37328 ft 501 kts 130°
2026-04-30 19:16 45.12199 16.52795 37330 ft 502 kts 130°
2026-04-30 19:17 45.05310 16.63796 37333 ft 503 kts 130°
2026-04-30 19:17 44.98380 16.74818 37330 ft 502 kts 131°
2026-04-30 19:18 44.91419 16.85848 37324 ft 503 kts 131°
2026-04-30 19:19 44.86796 16.93146 37322 ft 503 kts 131°
2026-04-30 19:19 44.79795 17.04163 37317 ft 503 kts 131°
2026-04-30 19:20 44.75147 17.11453 37320 ft 503 kts 131°
2026-04-30 19:21 44.68126 17.22430 37316 ft 503 kts 131°
2026-04-30 19:22 44.58766 17.36995 37295 ft 504 kts 131°
2026-04-30 19:23 44.44609 17.58886 37294 ft 504 kts 132°
2026-04-30 19:24 44.37541 17.69750 37291 ft 504 kts 133°
2026-04-30 19:25 44.25813 17.87683 37288 ft 505 kts 133°
2026-04-30 19:26 44.16457 18.01912 37282 ft 505 kts 133°
2026-04-30 19:27 44.09424 18.12560 37280 ft 505 kts 133°
2026-04-30 19:28 44.02459 18.23063 37285 ft 506 kts 133°
2026-04-30 19:29 43.92952 18.37334 37287 ft 505 kts 133°
2026-04-30 19:30 43.83455 18.51518 37264 ft 508 kts 133°
2026-04-30 19:31 43.74091 18.65438 37252 ft 507 kts 134°
2026-04-30 19:31 43.66987 18.75954 37257 ft 507 kts 134°
2026-04-30 19:32 43.62211 18.82999 37267 ft 507 kts 134°
2026-04-30 19:32 43.57467 18.89978 37261 ft 508 kts 134°
2026-04-30 19:33 43.52616 18.97101 37261 ft 507 kts 134°
2026-04-30 19:33 43.47852 19.04078 37260 ft 509 kts 134°
2026-04-30 19:34 43.43013 19.11146 37251 ft 509 kts 134°
2026-04-30 19:35 43.35876 19.21538 37226 ft 508 kts 135°
2026-04-30 19:35 43.31096 19.28475 37207 ft 509 kts 135°
2026-04-30 19:36 43.26243 19.35501 37193 ft 510 kts 135°
2026-04-30 19:36 43.18990 19.45975 37198 ft 508 kts 135°
2026-04-30 19:37 43.14328 19.52686 37213 ft 509 kts 135°
2026-04-30 19:37 43.09715 19.59309 37222 ft 510 kts 135°
2026-04-30 19:38 43.00363 19.72682 37252 ft 510 kts 136°
2026-04-30 19:39 42.95570 19.79516 37242 ft 508 kts 136°
2026-04-30 19:39 42.90683 19.86470 37218 ft 509 kts 136°
2026-04-30 19:40 42.86280 19.92719 37194 ft 508 kts 136°
2026-04-30 19:40 42.81354 19.99692 37164 ft 510 kts 136°
2026-04-30 19:41 42.76573 20.06442 37158 ft 508 kts 136°
2026-04-30 19:41 42.71625 20.13411 37130 ft 509 kts 136°
2026-04-30 19:42 42.66726 20.20294 37125 ft 510 kts 136°
2026-04-30 19:42 42.61809 20.27190 37148 ft 511 kts 137°
2026-04-30 19:43 42.59310 20.30689 37015 ft 511 kts 136°
2026-04-30 19:43 42.56844 20.34137 37165 ft 511 kts 136°
2026-04-30 19:44 42.49500 20.44373 37245 ft 514 kts 136°
2026-04-30 19:44 42.44523 20.51290 37241 ft 513 kts 137°
2026-04-30 19:45 42.39603 20.58110 37234 ft 512 kts 137°
2026-04-30 19:45 42.34613 20.65012 37247 ft 511 kts 137°
2026-04-30 19:46 42.29667 20.71837 37250 ft 513 kts 137°
2026-04-30 19:46 42.24649 20.78746 37246 ft 513 kts 138°
2026-04-30 19:47 42.19680 20.85568 37219 ft 515 kts 138°
2026-04-30 19:47 42.14673 20.92429 37193 ft 513 kts 138°
2026-04-30 19:48 42.09678 20.99260 37194 ft 510 kts 138°
2026-04-30 19:48 42.04686 21.06063 37219 ft 512 kts 138°
2026-04-30 19:49 41.99672 21.12880 37232 ft 513 kts 138°
2026-04-30 19:49 41.92145 21.23090 37221 ft 515 kts 138°
2026-04-30 19:50 41.87102 21.29911 37219 ft 515 kts 138°
2026-04-30 19:50 41.82048 21.36729 37192 ft 514 kts 139°
2026-04-30 19:51 41.77020 21.43499 37178 ft 513 kts 138°
2026-04-30 19:51 41.72012 21.50225 37169 ft 512 kts 138°
2026-04-30 19:52 41.66974 21.56970 37185 ft 512 kts 139°
2026-04-30 19:52 41.61951 21.63681 37206 ft 513 kts 138°
2026-04-30 19:53 41.57064 21.70196 37195 ft 514 kts 139°
2026-04-30 19:53 41.51999 21.76931 37212 ft 514 kts 140°
2026-04-30 19:54 41.46953 21.83625 37202 ft 514 kts 139°
2026-04-30 19:54 41.41877 21.90346 37160 ft 513 kts 139°
2026-04-30 19:55 41.36856 21.96981 37175 ft 514 kts 139°
2026-04-30 19:55 41.31927 22.03477 37150 ft 512 kts 140°
2026-04-30 19:56 41.26763 22.10264 37142 ft 513 kts 140°
2026-04-30 19:56 41.21699 22.16898 37123 ft 514 kts 140°
2026-04-30 19:57 41.16423 22.23187 37122 ft 508 kts 147°
2026-04-30 19:57 41.10599 22.28414 37096 ft 501 kts 154°
2026-04-30 19:58 41.04547 22.32957 37100 ft 501 kts 156°
2026-04-30 19:58 40.98470 22.37354 37116 ft 500 kts 157°
2026-04-30 19:59 40.92386 22.41761 37118 ft 500 kts 156°
2026-04-30 20:00 40.83245 22.48445 37123 ft 500 kts 156°
2026-04-30 20:00 40.77167 22.52904 37116 ft 500 kts 156°
2026-04-30 20:01 40.68128 22.59539 37122 ft 489 kts 156°
2026-04-30 20:01 40.62212 22.63874 37112 ft 488 kts 156°
2026-04-30 20:02 40.53306 22.70371 37104 ft 487 kts 156°
2026-04-30 20:03 40.44550 22.76737 36963 ft 488 kts 156°
2026-04-30 20:03 40.41570 22.78899 36594 ft 488 kts 156°
2026-04-30 20:03 40.38631 22.81031 36170 ft 483 kts 156°
2026-04-30 20:04 40.35714 22.83150 35773 ft 478 kts 156°
2026-04-30 20:04 40.32796 22.85266 35363 ft 473 kts 157°
2026-04-30 20:04 40.29905 22.87361 34954 ft 467 kts 157°
2026-04-30 20:05 40.24293 22.91420 34057 ft 458 kts 157°
2026-04-30 20:05 40.21551 22.93398 33576 ft 454 kts 157°
2026-04-30 20:05 40.16053 22.97355 32599 ft 448 kts 156°
2026-04-30 20:06 40.13337 22.99303 32114 ft 446 kts 156°
2026-04-30 20:06 40.10641 23.01234 31627 ft 443 kts 156°
2026-04-30 20:06 40.07947 23.03166 31142 ft 439 kts 156°
2026-04-30 20:06 40.05358 23.05024 30650 ft 435 kts 156°
2026-04-30 20:07 40.02739 23.06901 30051 ft 429 kts 156°
2026-04-30 20:07 40.00148 23.08758 29454 ft 422 kts 156°
2026-04-30 20:07 39.95088 23.12380 28277 ft 412 kts 156°
2026-04-30 20:08 39.92598 23.14159 27689 ft 407 kts 156°
2026-04-30 20:08 39.90125 23.15921 27101 ft 403 kts 156°
2026-04-30 20:08 39.87676 23.17665 26511 ft 399 kts 156°
2026-04-30 20:08 39.85241 23.19399 25922 ft 394 kts 156°
2026-04-30 20:09 39.82879 23.21080 25353 ft 390 kts 156°
2026-04-30 20:09 39.80494 23.22775 24776 ft 387 kts 156°
2026-04-30 20:09 39.75847 23.26077 23650 ft 379 kts 156°
2026-04-30 20:10 39.71259 23.29330 22533 ft 373 kts 156°
2026-04-30 20:10 39.68991 23.30933 21972 ft 370 kts 156°
2026-04-30 20:10 39.66765 23.32507 21423 ft 367 kts 155°
2026-04-30 20:11 39.62321 23.35647 20313 ft 361 kts 155°
2026-04-30 20:11 39.60136 23.37191 19758 ft 358 kts 155°
2026-04-30 20:11 39.57959 23.38730 19205 ft 356 kts 155°
2026-04-30 20:12 39.53634 23.41778 18102 ft 351 kts 155°
2026-04-30 20:12 39.51498 23.43282 17560 ft 348 kts 155°
2026-04-30 20:12 39.49389 23.44765 17009 ft 346 kts 155°
2026-04-30 20:13 39.47286 23.46244 16457 ft 344 kts 155°
2026-04-30 20:13 39.45197 23.47713 15921 ft 342 kts 155°
2026-04-30 20:13 39.43139 23.49159 15384 ft 339 kts 155°
2026-04-30 20:13 39.41052 23.50560 14844 ft 335 kts 159°
2026-04-30 20:14 39.38952 23.51711 14452 ft 324 kts 164°
2026-04-30 20:14 39.36871 23.52695 14045 ft 314 kts 166°
2026-04-30 20:14 39.34824 23.53624 13545 ft 305 kts 166°
2026-04-30 20:14 39.32861 23.54523 13055 ft 298 kts 165°
2026-04-30 20:15 39.30924 23.55429 12554 ft 291 kts 165°
2026-04-30 20:15 39.29047 23.56321 12056 ft 285 kts 165°
2026-04-30 20:15 39.27206 23.57204 11558 ft 280 kts 165°
2026-04-30 20:15 39.25391 23.58077 11051 ft 275 kts 165°
2026-04-30 20:16 39.23636 23.58921 10611 ft 270 kts 164°
2026-04-30 20:16 39.21897 23.59759 10244 ft 261 kts 165°
2026-04-30 20:16 39.20204 23.60505 9873 ft 251 kts 170°
2026-04-30 20:16 39.18523 23.60987 9401 ft 246 kts 174°
2026-04-30 20:17 39.16822 23.61386 8812 ft 249 kts 174°
2026-04-30 20:17 39.15116 23.61750 8219 ft 250 kts 174°
2026-04-30 20:17 39.13404 23.62088 7660 ft 249 kts 174°
2026-04-30 20:17 39.11678 23.62234 7154 ft 245 kts 183°
2026-04-30 20:18 39.10001 23.62136 6675 ft 242 kts 185°
2026-04-30 20:18 39.08340 23.61985 6191 ft 239 kts 186°
2026-04-30 20:18 39.06685 23.61824 5818 ft 233 kts 186°
2026-04-30 20:18 39.05111 23.61582 5459 ft 228 kts 195°
2026-04-30 20:19 39.03657 23.60891 5170 ft 218 kts 204°
2026-04-30 20:19 39.02282 23.60105 4918 ft 213 kts 205°
2026-04-30 20:19 39.00963 23.59291 4711 ft 206 kts 214°
2026-04-30 20:19 39.00049 23.57947 4544 ft 195 kts 243°
2026-04-30 20:20 38.99552 23.56386 4398 ft 186 kts 254°
2026-04-30 20:20 38.99216 23.54805 4261 ft 181 kts 261°
2026-04-30 20:20 38.99301 23.53218 4131 ft 181 kts 289°
2026-04-30 20:20 38.99903 23.51841 3991 ft 174 kts 313°
2026-04-30 20:21 39.00708 23.50727 3831 ft 168 kts 314°
2026-04-30 20:21 39.01481 23.49634 3639 ft 161 kts 314°
2026-04-30 20:21 39.02201 23.48589 3395 ft 152 kts 314°
2026-04-30 20:21 39.02931 23.47618 2992 ft 149 kts 327°
2026-04-30 20:22 39.03849 23.47098 2547 ft 146 kts 349°
2026-04-30 20:22 39.04835 23.46793 2157 ft 142 kts 349°
2026-04-30 20:22 39.05751 23.46474 1920 ft 131 kts 348°
2026-04-30 20:22 39.06593 23.46166 1667 ft 122 kts 348°
2026-04-30 20:23 39.07407 23.45933 1396 ft 118 kts
2026-04-30 20:23 39.08131 23.46404 1171 ft 118 kts 36°
2026-04-30 20:23 39.08881 23.46767 1036 ft 118 kts
2026-04-30 20:23 39.09671 23.47012 983 ft 119 kts 21°
2026-04-30 20:24 39.10453 23.47372 905 ft 118 kts 18°
2026-04-30 20:24 39.11230 23.47685 834 ft 118 kts 17°
2026-04-30 20:24 39.12022 23.48003 731 ft 119 kts 17°
2026-04-30 20:24 39.12813 23.48309 623 ft 119 kts 14°
2026-04-30 20:25 39.14426 23.48847 467 ft 119 kts 21°
2026-04-30 20:25 39.15196 23.49226 423 ft 118 kts 17°
2026-04-30 20:26 39.16766 23.49943 138 ft 125 kts 15°
2026-04-30 20:26 39.17904 23.50449 64 ft 42 kts 19°
2026-04-30 20:26 39.18161 23.50574 70 ft 37 kts 18°